DT_LEITURA;HR_LEITURA;MED-PressaoAtm[hPa];VAL-TempExt[oC];VAL-UmidExt[%UR];VAL-TempInt[oC];VAL-UmidInt[%UR];Dir-Vento[grau];Vel-Vento[m/s];Precipitação[mm/h]
29/08/2026;00:04:00;1005,9;;;20,1;78;20;2,4;0,0
29/08/2026;00:09:00;1006,1;;;20,0;78;30;1,7;0,0
29/08/2026;00:14:00;1006,1;;;20,0;78;38;2,8;0,0
29/08/2026;00:19:00;1006,0;;;20,0;78;40;3,3;0,0
29/08/2026;00:24:00;1005,9;;;20,0;78;32;2,7;0,0
29/08/2026;00:29:00;1006,0;;;20,0;78;33;2,9;0,0
29/08/2026;00:34:00;1006,0;;;20,0;78;39;3,1;0,0
29/08/2026;00:39:00;1006,1;;;20,0;78;40;3,2;0,0
29/08/2026;00:44:00;1006,2;;;20,0;78;43;3,1;0,0
29/08/2026;00:49:00;1006,2;;;20,0;78;44;3,4;0,0
29/08/2026;00:54:00;1006,4;;;19,9;78;52;2,6;0,0
29/08/2026;00:59:00;1007,3;;;19,9;79;202;2,5;0,0
29/08/2026;01:04:00;1007,6;;;19,9;79;260;3,3;0,0
29/08/2026;01:09:00;1007,2;;;19,9;79;321;2,6;0,0
29/08/2026;01:14:00;1007,6;;;19,9;79;240;1,8;0,0
29/08/2026;01:19:00;1007,5;;;19,9;79;262;2,7;0,0
29/08/2026;01:24:00;1007,3;;;20,0;79;281;2,1;0,0
29/08/2026;01:29:00;1007,5;;;20,0;79;250;2,4;0,0
29/08/2026;01:34:00;1007,8;;;20,0;79;250;2,6;0,0
29/08/2026;01:39:00;1007,8;;;20,0;79;259;2,5;0,0
29/08/2026;01:44:00;1007,9;;;20,0;79;263;2,3;0,0
29/08/2026;01:49:00;1007,7;;;19,9;78;280;2,9;0,0
29/08/2026;01:54:00;1007,8;;;19,9;78;279;2,0;0,0
29/08/2026;01:59:00;1007,8;;;19,9;79;271;2,9;0,0
29/08/2026;02:04:00;1007,6;;;19,9;79;262;2,1;0,0
29/08/2026;02:09:00;1007,6;;;19,9;79;265;1,7;0,0
29/08/2026;02:14:00;1007,8;;;19,9;79;265;1,9;0,0
29/08/2026;02:19:00;1007,9;;;19,9;79;265;1,8;0,0
29/08/2026;02:24:00;1008,2;;;19,9;79;246;2,0;0,0
29/08/2026;02:29:00;1008,2;;;19,9;79;256;2,1;0,0
29/08/2026;02:34:00;1008,2;;;19,9;78;251;2,5;0,0
29/08/2026;02:39:00;1008,4;;;19,8;78;239;3,6;0,0
29/08/2026;02:44:00;1008,4;;;19,8;78;228;2,4;0,0
29/08/2026;02:49:00;1008,4;;;19,8;78;229;2,9;0,0
29/08/2026;02:54:00;1008,3;;;19,8;78;233;2,8;0,0
29/08/2026;02:59:00;1008,3;;;19,7;79;237;3,5;0,0
29/08/2026;03:04:00;1008,4;;;19,7;79;233;2,8;0,0
29/08/2026;03:09:00;1008,5;;;19,7;79;224;3,0;0,0
29/08/2026;03:14:00;1008,6;;;19,6;79;219;2,4;0,0
29/08/2026;03:19:00;1008,5;;;19,6;79;219;3,1;0,8
29/08/2026;03:24:00;1008,5;;;19,6;78;218;3,3;0,4
29/08/2026;03:29:00;1008,2;;;19,5;79;213;2,7;0,0
29/08/2026;03:34:00;1008,2;;;19,5;79;212;1,6;0,0
29/08/2026;03:39:00;1008,2;;;19,4;79;215;1,6;0,0
29/08/2026;03:44:00;1008,2;;;19,4;79;204;1,8;0,0
29/08/2026;03:49:00;1008,3;;;19,4;79;214;1,6;0,0
29/08/2026;03:54:00;1008,2;;;19,4;79;224;2,7;0,0
29/08/2026;03:59:00;1008,0;;;19,3;79;226;2,8;0,0
29/08/2026;04:04:00;1008,0;;;19,3;79;221;2,1;0,0
29/08/2026;04:09:00;1008,1;;;19,3;79;227;2,4;0,0
29/08/2026;04:14:00;1008,0;;;19,3;79;230;2,2;0,0
29/08/2026;04:19:00;1007,7;;;19,4;79;235;2,5;0,0
29/08/2026;04:24:00;1007,5;;;19,4;79;236;2,7;0,0
29/08/2026;04:29:00;1007,6;;;19,4;79;227;2,0;0,0
29/08/2026;04:34:00;1007,6;;;19,4;79;208;2,4;0,0
29/08/2026;04:39:00;1007,7;;;19,5;79;222;3,6;0,0
29/08/2026;04:44:00;1007,7;;;19,5;79;244;3,2;0,0
29/08/2026;04:49:00;1007,8;;;19,5;79;245;2,9;0,0
29/08/2026;04:54:00;1007,7;;;19,5;79;224;2,6;0,0
29/08/2026;04:59:00;1007,4;;;19,5;79;217;2,6;0,0
29/08/2026;05:04:00;1007,4;;;19,5;79;235;2,4;0,0
29/08/2026;05:09:00;1007,5;;;19,6;79;237;3,5;0,0
29/08/2026;05:14:00;1007,5;;;19,6;79;241;4,9;0,0
29/08/2026;05:19:00;1007,6;;;19,6;79;248;4,9;0,0
29/08/2026;05:24:00;1007,5;;;19,6;79;243;4,8;0,0
29/08/2026;05:29:00;1007,3;;;19,6;79;239;5,1;0,0
29/08/2026;05:34:00;1007,3;;;19,6;79;243;4,4;0,0
29/08/2026;05:39:00;1007,1;;;19,6;79;231;4,9;0,0
29/08/2026;05:44:00;1007,0;;;19,6;79;238;4,7;0,0
29/08/2026;05:49:00;1007,0;;;19,6;79;242;5,2;0,0
29/08/2026;05:54:00;1007,0;;;19,5;79;243;4,4;0,0
29/08/2026;05:59:00;1007,3;;;19,5;79;244;4,4;0,0
29/08/2026;06:04:00;1007,8;;;19,5;79;247;5,2;0,0
29/08/2026;06:09:00;1008,0;;;19,4;79;238;4,3;0,0
29/08/2026;06:14:00;1008,3;;;19,4;79;244;5,3;0,0
29/08/2026;06:19:00;1008,2;;;19,4;79;234;3,7;0,0
29/08/2026;06:24:00;1008,2;;;19,3;79;240;4,3;0,0
29/08/2026;06:29:00;1008,3;;;19,3;79;232;4,4;0,0
29/08/2026;06:34:00;1008,6;;;19,3;79;241;3,9;0,0
29/08/2026;06:39:00;1008,5;;;19,3;79;225;4,7;0,0
29/08/2026;06:44:00;1008,5;;;19,3;79;233;3,9;0,0
29/08/2026;06:49:00;1008,6;;;19,3;79;224;4,5;0,0
29/08/2026;06:54:00;1008,6;;;19,3;79;245;3,5;0,0
29/08/2026;06:59:00;1008,4;;;19,3;79;229;3,7;0,0
29/08/2026;07:04:00;1008,6;;;19,3;79;237;4,2;1,4
29/08/2026;07:09:00;1009,5;;;19,2;79;248;6,0;0,8
29/08/2026;07:14:00;1009,7;;;19,2;79;243;5,3;2,2
29/08/2026;07:19:00;1009,1;;;19,1;79;232;4,7;0,4
29/08/2026;07:24:00;1008,9;;;19,1;79;228;2,0;0,0
29/08/2026;07:29:00;1008,6;;;19,0;79;220;2,8;0,2
29/08/2026;07:34:00;1007,9;;;19,0;79;219;3,5;0,6
29/08/2026;07:39:00;1009,1;;;19,0;80;254;4,8;1,8
29/08/2026;07:44:00;1009,5;;;18,9;80;230;3,4;3,0
29/08/2026;07:49:00;1010,0;;;18,9;80;251;2,9;3,0
29/08/2026;07:54:00;1008,9;;;18,9;80;196;4,2;4,2
29/08/2026;07:59:00;1009,4;;;18,9;80;244;5,0;3,0
29/08/2026;08:04:00;1010,3;;;18,9;80;261;3,4;0,0
29/08/2026;08:09:00;1010,6;;;18,9;80;260;3,0;0,2
29/08/2026;08:14:00;1010,8;;;18,9;80;266;3,1;0,0
29/08/2026;08:19:00;1010,4;;;18,9;80;242;3,6;0,0
29/08/2026;08:24:00;1010,4;;;18,9;80;244;4,1;0,0
29/08/2026;08:29:00;1010,3;;;18,9;80;240;3,3;0,2
29/08/2026;08:34:00;1010,1;;;18,8;80;243;3,0;0,0
29/08/2026;08:39:00;1010,3;;;18,8;80;241;4,0;0,0
29/08/2026;08:44:00;1010,6;;;18,8;80;244;3,4;0,0
29/08/2026;08:49:00;1010,6;;;18,8;80;247;2,6;0,2
29/08/2026;08:54:00;1010,6;;;18,8;80;231;2,4;0,2
29/08/2026;08:59:00;1010,8;;;18,8;80;233;3,1;0,2
29/08/2026;09:04:00;1010,9;;;18,8;80;234;3,3;0,0
29/08/2026;09:09:00;1010,9;;;18,8;80;224;3,2;0,2
29/08/2026;09:14:00;1010,7;;;18,8;80;235;3,3;0,2
29/08/2026;09:19:00;1010,8;;;18,9;80;236;3,3;0,0
29/08/2026;09:24:00;1010,6;;;18,9;80;235;2,8;0,0
29/08/2026;09:29:00;1010,7;;;18,9;80;248;3,4;0,2
29/08/2026;09:34:00;1010,5;;;18,9;80;232;3,2;0,2
29/08/2026;09:39:00;1009,7;;;18,9;80;206;3,1;0,0
29/08/2026;09:44:00;1010,0;;;18,9;80;247;3,6;0,0
29/08/2026;09:49:00;1011,1;;;19,0;80;252;3,7;0,0
29/08/2026;09:54:00;1010,2;;;19,0;80;220;3,0;0,4
29/08/2026;09:59:00;1009,9;;;19,0;80;234;2,3;0,4
29/08/2026;10:04:00;1009,6;;;19,0;80;229;1,8;0,0
29/08/2026;10:09:00;1009,4;;;19,0;80;240;1,8;0,0
29/08/2026;10:14:00;1010,0;;;19,1;81;259;2,4;0,0
29/08/2026;10:19:00;1010,3;;;19,2;81;249;2,2;0,0
29/08/2026;10:24:00;1010,0;;;19,3;82;228;0,6;0,0
29/08/2026;10:29:00;1010,0;;;19,5;82;266;1,0;0,0
29/08/2026;10:34:00;1010,0;;;19,6;82;270;1,6;0,0
29/08/2026;10:39:00;1010,0;;;19,7;81;256;1,3;0,0
29/08/2026;10:44:00;1009,8;;;19,7;81;234;1,5;0,0
29/08/2026;10:49:00;1009,8;;;19,8;81;241;1,0;0,0
29/08/2026;10:54:00;1010,1;;;19,8;80;235;1,5;0,0
29/08/2026;10:59:00;1010,1;;;19,8;80;226;1,7;0,4
29/08/2026;11:04:00;1010,2;;;19,8;80;202;0,7;0,4
29/08/2026;11:09:00;1010,1;;;19,8;80;219;0,7;0,0
29/08/2026;11:14:00;1009,9;;;19,8;80;160;1,2;0,0
29/08/2026;11:19:00;1009,8;;;19,7;80;202;1,5;0,2
29/08/2026;11:24:00;1009,9;;;19,7;80;240;2,6;0,2
29/08/2026;11:29:00;1010,2;;;19,6;80;226;3,3;0,2
29/08/2026;11:34:00;1010,3;;;19,6;80;229;3,0;0,2
29/08/2026;11:39:00;1010,5;;;19,5;80;227;4,3;0,2
29/08/2026;11:44:00;1010,7;;;19,5;80;228;3,7;0,4
29/08/2026;11:49:00;1010,5;;;19,4;80;221;2,8;0,4
29/08/2026;11:54:00;1010,1;;;19,4;80;230;4,2;0,2
29/08/2026;11:59:00;1010,8;;;19,3;80;239;5,4;0,4
29/08/2026;12:04:00;1010,8;;;19,2;80;223;4,0;1,0
29/08/2026;12:09:00;1010,5;;;19,2;80;225;3,5;0,6
29/08/2026;12:14:00;1010,1;;;19,1;80;218;3,0;0,2
29/08/2026;12:19:00;1009,8;;;19,1;80;228;3,0;0,2
29/08/2026;12:24:00;1009,9;;;19,0;80;228;3,4;0,0
29/08/2026;12:29:00;1009,3;;;19,0;80;224;3,6;0,8
29/08/2026;12:34:00;1009,5;;;19,0;80;223;3,7;0,4
29/08/2026;12:39:00;1009,7;;;18,9;80;226;4,3;0,2
29/08/2026;12:44:00;1010,2;;;18,9;80;241;3,6;0,0
29/08/2026;12:49:00;1010,2;;;18,9;80;238;2,8;0,0
29/08/2026;12:54:00;1010,1;;;18,9;80;241;3,4;0,2
29/08/2026;12:59:00;1010,2;;;18,9;80;238;3,9;0,0
29/08/2026;13:04:00;1009,6;;;18,9;80;217;3,4;0,2
29/08/2026;13:09:00;1009,2;;;18,9;80;226;3,1;0,0
29/08/2026;13:14:00;1009,5;;;18,9;81;244;3,2;0,0
29/08/2026;13:19:00;1009,5;;;19,0;81;241;3,5;0,0
29/08/2026;13:24:00;1009,3;;;19,0;81;232;3,6;0,0
29/08/2026;13:29:00;1009,3;;;19,0;81;242;3,6;0,0
29/08/2026;13:34:00;1009,4;;;19,0;81;240;3,8;0,0
29/08/2026;13:39:00;1009,3;;;19,1;81;235;4,3;0,0
29/08/2026;13:44:00;1009,4;;;19,1;81;245;4,6;0,0
29/08/2026;13:49:00;1009,6;;;19,2;82;238;3,0;0,0
29/08/2026;13:54:00;1009,6;;;19,2;82;242;2,4;0,0
29/08/2026;13:59:00;1009,3;;;19,3;82;253;2,6;0,0
29/08/2026;14:04:00;1009,2;;;19,3;82;240;3,3;0,0
29/08/2026;14:09:00;1009,1;;;19,4;82;236;4,1;0,0
29/08/2026;14:14:00;1009,1;;;19,5;82;228;3,0;0,0
29/08/2026;14:19:00;1009,0;;;19,6;82;231;3,3;0,0
29/08/2026;14:24:00;1009,2;;;19,6;82;232;3,2;0,0
29/08/2026;14:29:00;1009,2;;;19,7;81;243;3,5;0,0
29/08/2026;14:34:00;1009,3;;;19,8;81;235;3,3;0,0
29/08/2026;14:39:00;1009,2;;;19,8;81;242;3,8;0,0
29/08/2026;14:44:00;1009,2;;;19,8;81;233;3,2;0,0
29/08/2026;14:49:00;1009,2;;;19,8;81;229;3,0;0,0
29/08/2026;14:54:00;1009,0;;;19,8;81;226;4,2;0,0
29/08/2026;14:59:00;1009,0;;;19,8;81;223;4,4;0,0
29/08/2026;15:04:00;1008,9;;;19,8;81;224;3,6;0,0
29/08/2026;15:09:00;1008,8;;;19,8;81;225;3,9;0,0
29/08/2026;15:14:00;1008,9;;;19,8;81;227;3,9;0,0
29/08/2026;15:19:00;1008,9;;;19,7;80;229;4,3;0,0
29/08/2026;15:24:00;1009,0;;;19,7;80;228;4,4;0,0
29/08/2026;15:29:00;1009,2;;;19,6;81;227;5,1;0,0
29/08/2026;15:34:00;1009,3;;;19,6;81;233;5,0;0,0
29/08/2026;15:39:00;1009,7;;;19,6;81;231;4,4;0,0
29/08/2026;15:44:00;1009,8;;;19,5;80;230;4,8;0,0
29/08/2026;15:49:00;1009,6;;;19,5;80;226;3,8;0,0
29/08/2026;15:59:00;1009,5;;;19,4;80;225;6,0;0,0
29/08/2026;16:04:00;1009,6;;;19,3;80;230;5,2;0,0
29/08/2026;16:09:00;1009,7;;;19,2;80;226;5,0;0,0
29/08/2026;16:14:00;1009,8;;;19,2;81;227;4,4;0,0
29/08/2026;16:19:00;1009,9;;;19,2;81;229;5,0;0,0
29/08/2026;16:24:00;1009,9;;;19,1;81;228;5,3;0,0
29/08/2026;16:29:00;1010,0;;;19,1;81;229;4,6;0,0
29/08/2026;16:34:00;1010,2;;;19,0;81;232;5,3;0,0
29/08/2026;16:39:00;1010,4;;;19,0;81;227;4,8;0,0
29/08/2026;16:44:00;1010,4;;;19,0;81;231;5,2;0,0
29/08/2026;16:49:00;1010,6;;;19,0;81;229;5,3;0,0
29/08/2026;16:54:00;1010,5;;;19,0;81;228;5,4;0,0
29/08/2026;16:59:00;1010,4;;;19,0;81;233;5,4;0,0
29/08/2026;17:04:00;1010,7;;;18,9;81;229;5,2;0,0
29/08/2026;17:09:00;1011,1;;;18,9;81;238;4,0;0,0
29/08/2026;17:14:00;1011,1;;;18,9;81;224;5,5;0,0
29/08/2026;17:19:00;1011,0;;;18,9;81;231;4,7;0,0
29/08/2026;17:24:00;1011,1;;;18,9;81;230;4,1;0,0
29/08/2026;17:29:00;1011,0;;;18,9;81;233;4,3;0,0
29/08/2026;17:34:00;1011,0;;;18,8;81;239;4,2;0,0
29/08/2026;17:39:00;1010,8;;;18,8;81;234;4,0;0,0
29/08/2026;17:44:00;1010,7;;;18,8;81;236;3,2;0,0
29/08/2026;17:49:00;1010,5;;;18,8;81;221;2,7;0,0
29/08/2026;17:54:00;1010,4;;;18,8;81;232;1,8;0,0
29/08/2026;17:59:00;1010,6;;;18,8;81;241;2,9;0,0
29/08/2026;18:04:00;1010,6;;;18,8;81;231;2,7;0,0
29/08/2026;18:09:00;1010,9;;;18,8;81;249;2,9;0,0
29/08/2026;18:14:00;1010,9;;;18,7;81;246;2,5;0,0
29/08/2026;18:19:00;1011,1;;;18,7;81;238;3,4;0,0
29/08/2026;18:24:00;1011,2;;;18,7;81;240;3,6;0,0
29/08/2026;18:29:00;1011,2;;;18,8;81;235;3,4;0,0
29/08/2026;18:34:00;1011,3;;;18,8;81;236;3,5;0,0
29/08/2026;18:39:00;1011,3;;;18,8;81;226;3,8;0,0
29/08/2026;18:44:00;1011,1;;;18,8;81;238;3,5;0,0
29/08/2026;18:49:00;1011,3;;;18,8;81;241;2,3;0,0
29/08/2026;18:54:00;1011,5;;;18,8;81;242;3,0;0,0
29/08/2026;18:59:00;1011,5;;;18,8;81;229;3,0;0,0
29/08/2026;19:04:00;1011,5;;;18,8;81;236;3,1;0,0
29/08/2026;19:09:00;1011,7;;;18,8;81;246;3,2;0,0
29/08/2026;19:14:00;1011,7;;;18,8;81;237;3,4;0,0
29/08/2026;19:19:00;1011,2;;;18,9;81;223;3,6;0,0
29/08/2026;19:24:00;1012,2;;;18,9;81;250;4,8;0,0
29/08/2026;19:29:00;1012,3;;;18,9;81;257;3,2;1,2
29/08/2026;19:34:00;1012,4;;;18,9;80;230;4,5;2,4
29/08/2026;19:39:00;1013,5;;;18,8;80;248;5,6;0,0
29/08/2026;19:44:00;1014,0;;;18,7;81;236;6,6;0,4
29/08/2026;19:49:00;1011,5;;;18,7;81;219;7,3;0,0
29/08/2026;19:54:00;1011,4;;;18,6;81;232;8,4;0,2
29/08/2026;19:59:00;1012,3;;;18,5;81;246;4,8;0,0
29/08/2026;20:04:00;1012,8;;;18,5;81;250;3,1;0,0
29/08/2026;20:09:00;1013,1;;;18,5;81;245;3,6;0,0
29/08/2026;20:14:00;1013,1;;;18,5;81;242;3,1;0,0
29/08/2026;20:19:00;1013,2;;;18,5;81;238;3,7;0,0
29/08/2026;20:24:00;1013,1;;;18,5;81;228;2,9;0,0
29/08/2026;20:29:00;1013,2;;;18,5;81;239;2,5;0,0
29/08/2026;20:34:00;1013,7;;;18,5;81;255;3,5;0,0
29/08/2026;20:39:00;1013,5;;;18,5;81;243;3,2;0,0
29/08/2026;20:44:00;1013,5;;;18,5;81;235;3,3;0,0
29/08/2026;20:49:00;1013,7;;;18,5;81;250;3,3;0,0
29/08/2026;20:54:00;1013,9;;;18,5;81;245;3,4;0,0
29/08/2026;20:59:00;1013,6;;;18,5;81;235;3,5;0,0
29/08/2026;21:04:00;1013,7;;;18,5;81;243;4,0;0,0
29/08/2026;21:09:00;1014,0;;;18,5;81;236;3,0;0,0
29/08/2026;21:14:00;1013,9;;;18,6;81;233;3,1;0,0
29/08/2026;21:19:00;1014,3;;;18,6;81;240;3,4;0,0
29/08/2026;21:24:00;1014,6;;;18,6;81;233;3,0;0,0
29/08/2026;21:29:00;1014,7;;;18,6;81;245;3,5;0,0
29/08/2026;21:34:00;1014,6;;;18,6;81;239;3,4;0,0
29/08/2026;21:39:00;1014,4;;;18,6;81;245;3,0;0,0
29/08/2026;21:44:00;1014,4;;;18,6;81;242;3,4;0,0
29/08/2026;21:49:00;1014,6;;;18,6;81;246;3,5;0,0
29/08/2026;21:54:00;1014,4;;;18,6;81;232;2,9;0,0
29/08/2026;21:59:00;1014,0;;;18,6;81;215;2,4;0,2
29/08/2026;22:04:00;1014,2;;;18,6;81;247;3,3;0,0
29/08/2026;22:09:00;1014,2;;;18,6;81;249;2,1;0,0
29/08/2026;22:14:00;1014,4;;;18,5;81;242;1,8;0,0
29/08/2026;22:19:00;1014,4;;;18,5;81;238;2,1;0,0
29/08/2026;22:24:00;1014,1;;;18,5;81;222;1,5;0,0
29/08/2026;22:29:00;1014,3;;;18,5;81;230;2,6;0,0
29/08/2026;22:34:00;1014,4;;;18,5;81;233;2,6;0,0
29/08/2026;22:39:00;1014,4;;;18,5;81;235;2,1;0,0
29/08/2026;22:44:00;1014,5;;;18,5;81;245;2,7;0,0
29/08/2026;22:49:00;1014,7;;;18,5;81;246;3,1;0,0
29/08/2026;22:54:00;1014,7;;;18,5;81;239;3,6;0,0
29/08/2026;22:59:00;1014,7;;;18,5;81;237;3,4;0,0
29/08/2026;23:04:00;1014,7;;;18,5;81;239;4,1;0,0
29/08/2026;23:09:00;1014,5;;;18,5;81;231;3,2;0,0
29/08/2026;23:14:00;1014,4;;;18,5;81;237;3,1;0,0
29/08/2026;23:19:00;1014,4;;;18,5;81;239;3,5;0,0
29/08/2026;23:24:00;1014,5;;;18,5;81;244;3,2;0,0
29/08/2026;23:29:00;1014,6;;;18,5;81;242;2,9;0,0
29/08/2026;23:34:00;1014,8;;;18,5;81;243;3,1;0,0
29/08/2026;23:39:00;1015,0;;;18,5;81;248;3,2;0,0
29/08/2026;23:44:00;1014,6;;;18,5;81;232;1,9;0,0
29/08/2026;23:49:00;1014,4;;;18,5;81;225;2,4;0,0
29/08/2026;23:54:00;1014,5;;;18,5;81;249;2,4;0,0
29/08/2026;23:59:00;1014,6;;;18,5;81;251;2,3;0,0
